TimeEDT,TemperatureF,Dew PointF,Humidity,Sea Level PressureIn,VisibilityMPH,Wind Direction,Wind SpeedMPH,Gust SpeedMPH,PrecipitationIn,Events,Conditions,WindDirDegrees,DateUTC
12:56 AM,64.0,62.1,93,29.89,10.0,West,8.1,-,N/A,,Scattered Clouds,260,2013-05-12 04:56:00
1:56 AM,64.0,62.1,93,29.88,10.0,WSW,6.9,-,N/A,,Mostly Cloudy,240,2013-05-12 05:56:00
2:56 AM,63.0,62.1,97,29.87,9.0,WSW,5.8,-,N/A,,Clear,240,2013-05-12 06:56:00
3:56 AM,62.1,61.0,96,29.88,9.0,West,3.5,-,0.01,,Clear,270,2013-05-12 07:56:00
4:15 AM,60.8,60.8,100,29.90,6.0,North,3.5,-,N/A,,Scattered Clouds,360,2013-05-12 08:15:00
4:56 AM,61.0,60.1,97,29.90,6.0,Calm,Calm,-,N/A,,Scattered Clouds,0,2013-05-12 08:56:00
5:46 AM,59.0,57.2,94,29.92,1.8,Calm,Calm,-,N/A,,Clear,0,2013-05-12 09:46:00
5:51 AM,59.0,57.2,94,29.92,3.0,Calm,Calm,-,N/A,,Clear,0,2013-05-12 09:51:00
5:56 AM,57.9,57.9,100,29.92,2.0,Calm,Calm,-,N/A,,Clear,0,2013-05-12 09:56:00
5:58 AM,57.2,57.2,100,29.93,1.2,Calm,Calm,-,N/A,,Partly Cloudy,0,2013-05-12 09:58:00
6:09 AM,57.2,55.4,94,29.93,5.0,NNW,4.6,-,N/A,,Partly Cloudy,330,2013-05-12 10:09:00
6:56 AM,55.9,52.0,87,29.94,10.0,Calm,Calm,-,N/A,,Clear,0,2013-05-12 10:56:00
7:56 AM,59.0,51.1,75,29.97,10.0,NNW,3.5,-,N/A,,Clear,340,2013-05-12 11:56:00
8:56 AM,63.0,51.1,65,29.98,10.0,Variable,3.5,-,N/A,,Clear,0,2013-05-12 12:56:00
9:56 AM,66.0,51.1,59,29.99,10.0,Calm,Calm,-,N/A,,Clear,0,2013-05-12 13:56:00
10:56 AM,68.0,52.0,56,29.99,10.0,WSW,6.9,-,N/A,,Clear,250,2013-05-12 14:56:00
11:56 AM,70.0,53.1,55,29.98,10.0,WNW,6.9,20.7,N/A,,Scattered Clouds,290,2013-05-12 15:56:00
12:56 PM,72.0,48.0,43,29.98,10.0,West,11.5,19.6,N/A,,Clear,280,2013-05-12 16:56:00
1:56 PM,73.0,46.9,39,29.97,10.0,WNW,11.5,19.6,N/A,,Clear,290,2013-05-12 17:56:00
2:56 PM,73.9,45.0,35,29.95,10.0,WSW,16.1,-,N/A,,Clear,240,2013-05-12 18:56:00
3:56 PM,75.0,41.0,29,29.94,10.0,WSW,15.0,21.9,0.01,,Clear,250,2013-05-12 19:56:00
4:56 PM,73.9,39.0,28,29.94,10.0,WSW,15.0,20.7,N/A,,Clear,250,2013-05-12 20:56:00
5:56 PM,73.0,35.1,25,29.95,10.0,West,13.8,18.4,N/A,,Clear,270,2013-05-12 21:56:00
6:56 PM,72.0,32.0,23,29.97,10.0,West,9.2,-,N/A,,Clear,260,2013-05-12 22:56:00
7:56 PM,68.0,28.9,23,29.98,10.0,West,6.9,-,N/A,,Clear,270,2013-05-12 23:56:00
8:56 PM,64.0,28.9,27,30.00,10.0,West,5.8,-,N/A,,Clear,280,2013-05-13 00:56:00
9:56 PM,61.0,33.1,35,30.01,10.0,West,5.8,-,N/A,,Clear,270,2013-05-13 01:56:00
10:56 PM,57.0,37.0,47,30.06,10.0,Calm,Calm,-,N/A,,Clear,0,2013-05-13 02:56:00
11:56 PM,51.1,39.9,66,30.07,10.0,Calm,Calm,-,N/A,,Clear,0,2013-05-13 03:56:00